Weather in Tlyustenkhabl'

Russia / Republic of Adygea     44°58′55″N   39°05′47″E
temp.,
°C
wind,
m/s
gust,
m/s
humid.,
%
clouds,
%
prec.,
mm/h
press.,
hPa
HPBL,
m
13 june, sun
sun1300:00+18wnw237557 0.0 1013102
03:00+16sw11805 0.0 101323
06:00+17s23805 0.0 1013117
09:00+22ssw225511 0.0 1013657
12:00+26wsw22375 0.0 10121638
15:00+28w23354 0.0 10112135
18:00+24nw355962 0.0 1011476
21:00+20wsw23720 0.1 101295
14 june, mon
mon1400:00+18w12795 0.0 101281
03:00+16sw018318 0.0 101226
06:00+17ene118427 0.0 1012121
09:00+23e2465100 0.0 1011604
12:00+26e4552100 0.0 10111484
15:00+28ene444689 0.0 10102078
18:00+26ne585898 0.1 1009822
21:00+22ene51173100 0.3 1008443
15 june, tue
tue1500:00+21ene5127724 0.0 1007373
03:00+19ne2386100 0.6 100782
06:00+19se129399 2.9 1008113
09:00+23ese33765 4.6 1009524
12:00+28ssw67460 0.0 10091907
15:00+28sw45440 0.0 10091569
18:00+27w21490 0.0 10091261
21:00+21nw34650 0.0 1009123
16 june, wed
wed1600:00+19nnw247796 0.0 1008104
03:00+17wnw379684 2.6 1009237
06:00+17w3796100 2.7 1009309
09:00+18w4694100 4.4 1010370
12:00+20w348487 0.4 1011612
15:00+25w46593 0.4 10101276
18:00+24nw45625 0.1 1010622
21:00+19nnw35780 0.1 1012130
17 june, thu
thu1700:00+17n12890 0.0 101262
03:00+16ne23925 0.0 101195
06:00+17ne249097 0.0 1011168
09:00+18n2390100 1.1 1011281
12:00+21ne238199 2.9 1012542
15:00+20e1282100 4.8 1014281
18:00+19sw2390100 0.7 1014191
21:00+18sw239197 0.7 101588